Location: Newark
(44.1906°N, 75.9681°W)
Time: 16:09:23
(UTC+00:00)

Envisat - Pass Details

Date: 29 January 2020
Orbit: 764 x 766 km, 98.1° (Epoch: 17 February)

Event Time Altitude Azimuth Distance (km) Brightness Sun altitude
Rises 23:56:46 0° 202° (SSW) 3,219 6.6 -19.6°
Reaches altitude 10° 23:59:34 10° 218° (SW) 2,298 6.0 -20.1°
Maximum altitude 00:03:26 22° 268° (W) 1,635 5.6 -20.8°
Drops below altitude 10° 00:07:20 10° 318° (NW) 2,311 5.9 -21.5°
Sets 00:10:10 0° 334° (NNW) 3,242 6.5 -22.0°
